Regional Weather Roundup
Issued by NWS

Home | Current Version | Previous Version | Graphics & Text | Print | Product List | Glossary On
Versions: 1 2 3 4 5 6 7 8 9 10 11 12 13 14 15 16 17 18 19 20 21 22 23 24 25 26 27 28 29 30 31 32 33 34 35 36 37 38 39 40 41 42 43 44 45 46 47 48 49 50
000
ASUS45 KBOU 052310
RWRCO

WEATHER ROUNDUP FOR COLORADO
NATIONAL WEATHER SERVICE DENVER/BOULDER CO
500 PM MDT SUN JUL 05 2015

NOTE: "FAIR" INDICATES FEW OR NO CLOUDS BELOW 12000 FEET WITH NO
SIGNIFICANT WEATHER AND/OR OBSTRUCTIONS TO VISIBILITY.

COZ001>005-013-030-031-060000-
...NORTHWEST COLORADO...

CITY           SKY/WX    TMP DP  RH WIND       PRES   REMARKS
CRAIG          LGT RAIN  67  59  75 SE9       30.15S
HAYDEN         CLOUDY    64  54  68 SE6       30.17F
MEEKER         PTSUNNY   71  57  61 S5        30.15F
MOUNT WERNER   NOT AVBL
STEAMBOAT SPGS CLOUDY    62  56  82 SW5       30.20S
WALDEN         CLOUDY    59  52  77 N14       30.25S
$$

COZ006>008-011-060000-
...WEST CENTRAL VALLEYS...

CITY           SKY/WX    TMP DP  RH WIND       PRES   REMARKS
GRAND JUNCTION CLOUDY    82  57  42 W10       30.04F
MONTROSE       CLOUDY    68  59  73 SE17      30.17R
EAGLE          CLOUDY    72  55  56 SW12      30.17F
RIFLE          CLOUDY    77  57  50 E5        30.07F
DELTA          CLOUDY    77  60  54 S5        30.11R
NUCLA          CLOUDY    68  61  77 E8        30.19F
$$

COZ017>023-064>068-060000-
...SOUTHWEST COLORADO...

CITY           SKY/WX    TMP DP  RH WIND       PRES   REMARKS
DURANGO        MOSUNNY   80  51  36 W17       30.13F
CORTEZ         PTSUNNY   79  49  34 N10       30.12F
PAGOSA SPRINGS MOSUNNY   75  48  38 W9        30.21F
TELLURIDE      LGT RAIN  54  54  99 CALM      30.41F
WOLF CREEK PAS NOT AVBL
$$

COZ009-010-012-014-032>034-037-058>063-060000-
...CENTRAL COLORADO...

CITY           SKY/WX    TMP DP  RH WIND       PRES   REMARKS
ASPEN          LGT RAIN  64  54  69 N8        30.24S
BUENA VISTA    LGT RAIN  69  51  53 S8G20     30.21R
COPPER MTN     LGT RAIN  55  48  76 W13       30.53S
BERTHOUD PASS  CLOUDY    43  34  70 W7        30.57F
COTTONWOOD PAS NOT AVBL
GUNNISON       CLOUDY    64  48  55 SW3       30.27R
KREMMLING      CLOUDY    70  54  56 W5        30.21F
LEADVILLE      CLOUDY    60  48  64 NW8       30.36S
SALIDA         CLOUDY    69  56  63 SW12G17   30.25S
SUNLIGHT       FOG       55  54  94 CALM      30.47F VSB 1/2
WILKERSON PASS CLOUDY    61  45  55 W5        30.49R
$$

COZ069>075-060000-
...SAN LUIS VALLEY/SANGRE DE CRISTO MOUNTAINS...

CITY           SKY/WX    TMP DP  RH WIND       PRES   REMARKS
ALAMOSA        CLOUDY    69  52  54 N21G28    30.17R
LA VETA PASS   PTSUNNY   68  43  40 MISG      30.37F
SAGUACHE       CLOUDY    66  55  68 S5        30.23F
$$

COZ035-036-038>040-060000-
...NORTHERN COLORADO FRONT RANGE...

CITY           SKY/WX    TMP DP  RH WIND       PRES   REMARKS
DENVER INTL AP CLOUDY    76  55  48 NW22G35   30.01R
DMNS CITY PARK   N/A     76  52  42 NW18G28   30.00R
AURORA         PTSUNNY   79  53  41 NW15      30.00R
FRONT RANGE AP CLOUDY    82  55  39 N23G37    30.00R
ERIE MUNI ARPT LGT RAIN  71  57  61 N13       30.04R
BOULDER MUN AP LGT RAIN  70  55  60 N7        30.04R
CENTENNIAL     CLOUDY    79  54  41 NW10      30.01R
BROOMFIELD     LGT RAIN  73  54  49 NW16G22   30.05R
FORT COLLINS   CLOUDY    70  59  68 NW10      30.04R
LONGMONT       LGT RAIN  73  58  60 N6        30.06R
$$

COZ041-046-047-076>085-087-088-060000-
...PIKES PEAK/PALMER DIVIDE AND SOUTHERN FOOTHILLS...

CITY           SKY/WX    TMP DP  RH WIND       PRES   REMARKS
COLO. SPRINGS  CLOUDY    85  49  28 SW7       30.01F
A. F. ACADEMY  CLOUDY    83  48  29 NW2       30.03S
ELLICOTT       CLOUDY     1  32 100 SW3       29.99F
FALCON         CLOUDY    82  49  31 CALM      30.08S
FORT CARSON    CLOUDY    86  56  35 S7        29.98S
LIMON          PTSUNNY   85  49  28 SW10      29.94S
MONUMENT HILL  TSTM      68  55  64 MISG      30.12R
TRINIDAD       CLOUDY    85  58  39 SW8       29.99F
$$

COZ042>045-048>051-090-091-060000-
...NORTHEAST COLORADO...

CITY           SKY/WX    TMP DP  RH WIND       PRES   REMARKS
GREELEY ARPT   CLOUDY    75  55  50 N23G32    29.98S
AKRON          CLOUDY    91  52  26 S9G23     29.86F
BURLINGTON     PTSUNNY   97  51  21 SW13      29.84F
WRAY           PTSUNNY  102  44  13 S13G22    29.78S
STERLING       CLOUDY    86  57  37 N21G29      N/A
HOLYOKE        PTSUNNY   95  48  20 N12       29.78F
FORT MORGAN    CLOUDY    82  53  36 N29G37    29.89S
$$

COZ086-089-092>099-060000-
...SOUTHEAST COLORADO...

CITY           SKY/WX    TMP DP  RH WIND       PRES   REMARKS
PUEBLO         CLOUDY    96  47  18 W3        29.86F
LA JUNTA       PTSUNNY   97  49  19 S13       29.82F
LAMAR          PTSUNNY   99  55  23 S17G25    29.78F
SPRINGFIELD      N/A     90  55  30 S18G26    29.89F
$$



USA.gov is the U.S. government's official web portal to all federal, state and local government web resources and services.